Regional Weather Roundup
Issued by NWS

Home | Current Version | Previous Version | Text Only | Print | Product List | Glossary On
Versions: 1 2 3 4 5 6 7 8 9 10 11 12 13 14 15 16 17 18 19 20 21 22 23 24 25 26 27 28 29 30 31 32 33 34 35 36 37 38 39 40 41 42 43 44 45 46 47 48 49 50
000
ASUS43 KLMK 252310
RWRKY
KENTUCKY REGIONAL WEATHER ROUNDUP
NATIONAL WEATHER SERVICE LOUISVILLE KY
700 PM EDT SAT OCT 25 2014

NOTE "FAIR" INDICATES FEW OR NO CLOUDS BELOW 12,000 FEET
WITH NO SIGNIFICANT WEATHER AND/OR OBSTRUCTIONS TO VISIBILITY.

KYZ001>023-026-027-061>063-070>075-260000-
WESTERN AND SOUTH CENTRAL KENTUCKY

CITY           SKY/WX    TMP DP  RH WIND       PRES   REMARKS
PADUCAH        CLEAR     74  61  63 CALM      30.00R
HENDERSON      CLEAR    N/A N/A N/A CALM      29.98S
OWENSBORO      CLEAR     73  59  61 W5        29.99R
HOPKINSVILLE   CLEAR     73  62  69 NW5       30.01R
BOWLING GREEN  CLEAR     74  58  57 W3        30.00R
GLASGOW        CLEAR     68  59  73 CALM      29.99R
$$

KYZ024-025-028>034-038-045-046-053-260000-
NORTH CENTRAL KENTUCKY

CITY           SKY/WX    TMP DP  RH WIND       PRES   REMARKS
LOUISVILLE/SDF PTCLDY    70  57  63 SW13      29.96S
LOUISVILLE/LOU CLEAR     70  57  63 W6        29.97R
FORT KNOX      CLEAR     68  57  67 SW3       29.97S
$$

KYZ035>037-039>044-047>052-055>060-089>105-260000-
NORTHEAST KENTUCKY

CITY           SKY/WX    TMP DP  RH WIND       PRES   REMARKS
LEXINGTON      CLEAR     69  57  65 W6        29.98R
COVINGTON      PTCLDY    70  51  51 W6        29.92F
FRANKFORT      CLEAR     68  56  65 W5        29.96S
$$

KYZ054-064>069-076>088-106>120-260000-
SOUTHEAST KENTUCKY

CITY           SKY/WX    TMP DP  RH WIND       PRES   REMARKS
JACKSON        CLEAR     63  52  67 CALM      29.98S
LONDON         PTCLDY    67  54  63 SW5       30.00R
SOMERSET       CLEAR     63  54  72 CALM      30.01F
MIDDLESBORO    CLOUDY    62  53  72 CALM      30.01S
MONTICELLO     CLEAR     65  56  72 CALM      30.02S
$$




USA.gov is the U.S. government's official web portal to all federal, state and local government web resources and services.